Torna al catalogo

STARLINK-32189

AttivoComunicazioniVLEO
NORAD 60317·PAYLOAD·🇺🇸 United States

Lanciato Jul 28, 2024 da Vandenberg Space Force Base

Loading…

Prossimi Passaggi (prossime 24 ore)

TLE

AggiornatoSource: CelesTrak SupGP

Epoca: Sep 15, 2026, 01:55 UTC

1 60317C 24133S   26258.08034722  .00013342  00000+0  39424-3 0  2584
2 60317  53.1559 134.9154 0001228  87.9250 191.8973 15.34380725    15

Traccia STARLINK-32189 in tempo reale con AllMySat

Download on the App Store